Location: *
(32.8140°S, 174.6161°E)
Time: 08:29:28
(UTC+00:00)

Intercosmos 25 Rocket - Pass Details

Date: 10 December 2019
Orbit: 435 x 2985 km, 82.6° (Epoch: 18 January)

Event Time Altitude Azimuth Distance (km) Brightness Sun altitude
Exits shadow 15:35:37 24° 357° (N) 1,088 4.4 -16.4°
Maximum altitude 15:37:41 86° 85° (E) 590 3.4 -16.1°
Drops below altitude 10° 15:42:42 10° 173° (S) 2,401 7.3 -15.3°
Sets 15:45:43 0° 173° (S) 3,690 8.3 -14.9°
